Location: Bogis-Bossey
(46.3500°N, 6.1667°E)
Time: 17:01:58
(UTC+00:00)

MOS 1 - Pass Details

Date: 17 August 2022
Orbit: 878 x 891 km, 99.0° (Epoch: 01 October)

Event Time Altitude Azimuth Distance (km) Brightness Sun altitude
Exits shadow 19:45:27 - 156° (SSE) 2,724 6.3 -10.7°
Reaches altitude 10° 19:45:55 10° 155° (SSE) 2,542 6.2 -10.8°
Maximum altitude 19:51:34 74° 72° (ENE) 924 4.3 -11.6°
Drops below altitude 10° 19:57:13 10° 349° (NNW) 2,551 7.4 -12.4°
Sets 19:59:37 0° 347° (NNW) 3,493 8.2 -12.7°
